(674) Rachele
ephemeris date magn radius delta ra dec elong phase
Today26 Aug 202613.63.448 AU3.279 AU16h00m-26°15'91.0°17.0°
Opposition30 Jul 202712.43.391 AU2.410 AU21h01m-35°39'162.0°5.3°
(674) Rachele - 2026-08-26
astro.vanbuitenen.nl


 
-1 year
-1 month
-1 day
Now
+1 day
+1 month
+1 year

The interactive orbit chart above shows the body's path through the solar system and its position at the given date. Green and blue lines are shown perpendicular to the ecliptic plane: Green if the path is above the ecliptic plane, blue if it is below. (Left-click and drag to rotate the view; Right-click and drag to move the view; Use scroll wheel to zoom in our out.)

The orbital elements of Rachele are:

            e (Eccentricity)                : 0.1929391
            a (Semimajor axis)              : 2.9246911
            i (Inclination)                 : 13.51152
            Ω (Longitude of ascending node) : 58.07000
            ω (Argument of perihelion)      : 41.20062
            M (Mean anomaly)                : 138.52266
            Epoch                           : 2026 Jun 09

            L (Longitude of perihelion)     : 98.47519
            B (Latitude of perihelion)      : 8.85293
            P (Orbital period in years)     : 5.00            
        

The light curve chart below shows the estimated development of the minor planet's magnitude.


The all-sky chart below shows the path of the minor planet over the same period as the light curve. The current position is marked yellow.





The following chart shows the path of the minor planet in the next few days. The field of view is optimized for (~10x50) binoculars and finderscopes.




Ephemerides:
Date       Time       RA (2000)    DEC (2000)    delta   radius  elong  phase   PA    magn
2026-08-26 00:00 UT   16 00 57.9   -26 15 29     3.279    3.448   91.0   17.0   101   13.6 
2026-08-26 10:26 UT   16 01 13.5   -26 16 22     3.286    3.448   90.6   17.0   101   13.6 
2026-08-27 00:00 UT   16 01 34.0   -26 17 32     3.294    3.449   90.2   17.0   101   13.6 
2026-08-28 00:00 UT   16 02 11.1   -26 19 38     3.309    3.449   89.4   17.0   101   13.6 
2026-08-29 00:00 UT   16 02 49.2   -26 21 45     3.324    3.450   88.5   17.0   101   13.6 
2026-08-30 00:00 UT   16 03 28.3   -26 23 54     3.339    3.450   87.7   17.0   101   13.6 
2026-08-31 00:00 UT   16 04 08.2   -26 26 04     3.355    3.451   86.9   17.0   101   13.6 
2026-09-01 00:00 UT   16 04 49.1   -26 28 16     3.370    3.452   86.1   17.0   101   13.6 
2026-09-02 00:00 UT   16 05 30.9   -26 30 29     3.385    3.452   85.3   16.9   101   13.6 
2026-09-03 00:00 UT   16 06 13.6   -26 32 44     3.400    3.453   84.5   16.9   102   13.7 
2026-09-04 00:00 UT   16 06 57.2   -26 35 00     3.415    3.453   83.7   16.9   102   13.7 
2026-09-05 00:00 UT   16 07 41.7   -26 37 18     3.430    3.454   82.9   16.8   102   13.7 
2026-09-06 00:00 UT   16 08 27.1   -26 39 36     3.445    3.454   82.1   16.8   102   13.7 
2026-09-07 00:00 UT   16 09 13.3   -26 41 57     3.460    3.455   81.3   16.8   102   13.7 
2026-09-08 00:00 UT   16 10 00.4   -26 44 18     3.475    3.456   80.6   16.7   102   13.7 
2026-09-09 00:00 UT   16 10 48.4   -26 46 40     3.490    3.456   79.8   16.7   102   13.7 
2026-09-10 00:00 UT   16 11 37.1   -26 49 04     3.505    3.457   79.0   16.6   102   13.7 
2026-09-11 00:00 UT   16 12 26.8   -26 51 28     3.519    3.457   78.2   16.6   102   13.7 
2026-09-12 00:00 UT   16 13 17.2   -26 53 54     3.534    3.458   77.4   16.5   102   13.7 
2026-09-13 00:00 UT   16 14 08.4   -26 56 20     3.549    3.458   76.7   16.4   102   13.7 
2026-09-14 00:00 UT   16 15 00.4   -26 58 48     3.564    3.459   75.9   16.4   102   13.7 
2026-09-15 00:00 UT   16 15 53.3   -27 01 16     3.578    3.459   75.1   16.3   102   13.8 
2026-09-16 00:00 UT   16 16 46.8   -27 03 45     3.593    3.460   74.4   16.3   102   13.8 
2026-09-17 00:00 UT   16 17 41.2   -27 06 14     3.607    3.460   73.6   16.2   102   13.8 
2026-09-18 00:00 UT   16 18 36.3   -27 08 44     3.622    3.461   72.8   16.1   102   13.8 
2026-09-19 00:00 UT   16 19 32.1   -27 11 15     3.636    3.461   72.1   16.0   102   13.8 
2026-09-20 00:00 UT   16 20 28.7   -27 13 46     3.650    3.462   71.3   16.0   102   13.8 
2026-09-21 00:00 UT   16 21 26.0   -27 16 18     3.665    3.462   70.6   15.9   102   13.8 
2026-09-22 00:00 UT   16 22 24.0   -27 18 50     3.679    3.463   69.8   15.8   102   13.8 
2026-09-23 00:00 UT   16 23 22.7   -27 21 23     3.693    3.463   69.1   15.7   102   13.8 
2026-09-24 00:00 UT   16 24 22.1   -27 23 55     3.707    3.464   68.3   15.6   102   13.8 
2026-09-25 00:00 UT   16 25 22.2   -27 26 28     3.721    3.464   67.6   15.5   102   13.8 


    Terminology:
            
    delta:  distance between minor planet and earth in AU
    radius: distance between minor planet and sun in AU
    magn:   magnitude (brightness) estimate    
    ra:     right ascension in hours (24h = 360deg)
    dec:    declination in degrees
    elong:  elongation in degrees (angle sun-earth-minor planet)    
    phase:  phase angle in degrees (angle sun-minor planet-earth)        
    AU:     Astronomical Unit (mean distance between earth and sun: 149597870.7 km
    

Orbital elements provided by the MPC (Minor Planet Center).
Calculations by a modified version of AAPlus, a C# implementation of the AA+ project by PJ Naughter from the algorithms presented in the book "Astronomical Algorithms" by Jean Meeus.
NGC2000 dso catalog and star labels from VizieR as provided by the Strasbourg astronomical Data Center.
Tycho2 catalog from the ESO archive.